Powrót do katalogu

DELTA 1 DEB

AktywnyLEO
NORAD 10707·DEBRIS·🇺🇸 United States

Wystrzelony Jul 29, 1976 z Vandenberg Space Force Base

Loading…

Następne Przeloty (najbliższe 24 godziny)

TLE

ŚwieżeSource: Space-Track

Epoka: Sep 14, 2026, 11:42 UTC

1 10707U 76077AC  26257.48771948  .00000176  00000-0  24574-2 0  9990
2 10707 102.1949 261.1533 0262187 149.9422   4.1250 11.98526122163055

Śledź DELTA 1 DEB w czasie rzeczywistym z AllMySat

Download on the App Store